TimeEDT,TemperatureF,Dew PointF,Humidity,Sea Level PressureIn,VisibilityMPH,Wind Direction,Wind SpeedMPH,Gust SpeedMPH,PrecipitationIn,Events,Conditions,WindDirDegrees,DateUTC
12:54 AM,66.9,66.0,97,30.25,9.0,Calm,Calm,-,N/A,,Partly Cloudy,0,2013-07-15 04:54:00
1:40 AM,66.2,64.4,94,30.25,6.0,Calm,Calm,-,N/A,,Scattered Clouds,0,2013-07-15 05:40:00
1:54 AM,66.9,64.9,93,30.25,6.0,Calm,Calm,-,N/A,,Scattered Clouds,0,2013-07-15 05:54:00
2:08 AM,66.2,64.4,94,30.25,7.0,Calm,Calm,-,N/A,,Mostly Cloudy,0,2013-07-15 06:08:00
2:47 AM,66.2,64.4,94,30.25,1.8,Calm,Calm,-,N/A,,Overcast,0,2013-07-15 06:47:00
2:50 AM,66.2,64.4,94,30.25,0.8,Calm,Calm,-,N/A,,Mist,0,2013-07-15 06:50:00
2:54 AM,66.9,66.0,97,30.25,0.5,Calm,Calm,-,N/A,Fog,Fog,0,2013-07-15 06:54:00
3:54 AM,66.9,66.0,97,30.25,0.2,Calm,Calm,-,N/A,Fog,Fog,0,2013-07-15 07:54:00
4:54 AM,66.9,66.0,97,30.25,0.2,Calm,Calm,-,N/A,Fog,Fog,0,2013-07-15 08:54:00
5:54 AM,66.9,66.0,97,30.25,0.2,Calm,Calm,-,N/A,Fog,Fog,0,2013-07-15 09:54:00
6:54 AM,66.9,66.9,100,30.26,0.2,Calm,Calm,-,N/A,Fog,Fog,0,2013-07-15 10:54:00
7:54 AM,69.1,68.0,96,30.26,0.5,Calm,Calm,-,N/A,Fog,Fog,0,2013-07-15 11:54:00
8:14 AM,69.8,69.8,100,30.26,1.2,Calm,Calm,-,N/A,,Overcast,0,2013-07-15 12:14:00
8:21 AM,69.8,69.8,100,30.27,3.0,Calm,Calm,-,N/A,,Overcast,0,2013-07-15 12:21:00
8:38 AM,71.6,69.8,94,30.26,10.0,Calm,Calm,-,N/A,,Scattered Clouds,0,2013-07-15 12:38:00
8:54 AM,73.0,70.0,90,30.25,10.0,Calm,Calm,-,N/A,,Clear,0,2013-07-15 12:54:00
9:54 AM,81.0,70.0,69,30.24,10.0,Calm,Calm,-,N/A,,Clear,0,2013-07-15 13:54:00
10:54 AM,84.0,70.0,63,30.22,10.0,NE,3.5,-,N/A,,Partly Cloudy,40,2013-07-15 14:54:00
11:54 AM,87.1,66.0,49,30.21,10.0,North,9.2,-,N/A,,Partly Cloudy,350,2013-07-15 15:54:00
12:54 PM,86.0,64.0,48,30.21,10.0,NW,5.8,-,N/A,,Partly Cloudy,320,2013-07-15 16:54:00
1:54 PM,88.0,64.0,45,30.19,10.0,NNW,8.1,-,N/A,,Partly Cloudy,330,2013-07-15 17:54:00
2:54 PM,88.0,64.0,45,30.19,10.0,WNW,10.4,-,N/A,,Partly Cloudy,290,2013-07-15 18:54:00
3:54 PM,88.0,62.1,42,30.18,10.0,WNW,10.4,16.1,N/A,,Clear,300,2013-07-15 19:54:00
4:54 PM,87.1,62.1,43,30.17,10.0,Variable,4.6,-,N/A,,Clear,0,2013-07-15 20:54:00
5:54 PM,86.0,63.0,46,30.17,10.0,NW,6.9,-,N/A,,Clear,320,2013-07-15 21:54:00
6:54 PM,84.0,60.1,44,30.18,10.0,NW,3.5,-,N/A,,Clear,320,2013-07-15 22:54:00
7:54 PM,78.1,66.9,68,30.18,10.0,Calm,Calm,-,N/A,,Clear,0,2013-07-15 23:54:00
8:54 PM,73.0,66.9,81,30.19,10.0,Calm,Calm,-,N/A,,Clear,0,2013-07-16 00:54:00
9:54 PM,71.1,66.9,87,30.20,10.0,South,3.5,-,N/A,,Clear,190,2013-07-16 01:54:00
10:54 PM,70.0,66.0,87,30.20,10.0,SSW,3.5,-,N/A,,Clear,200,2013-07-16 02:54:00
11:54 PM,69.1,64.9,87,30.20,10.0,Calm,Calm,-,N/A,,Clear,0,2013-07-16 03:54:00